This demonstration page uses our WeatherBlox Daily Observations layout. Learn more.

Left ArrowRight Arrow

38.88101, -77.10428

Hourly Observations for January 9, 2015

Temp ( °F °C ) Dew Point ( °F °C ) Humidity (%) Winds ( mph kmh ) Pressure ( in mb ) Visibility ( mi km ) Precip ( " mm )
12:52 am 00:52 Cloudy 27 -2.8 3 -16.1 35 35 SSW 23 37 30.19 1022 10 16 N/A
1:52 am 01:52 Cloudy 27 -2.8 3 -16.1 35 35 S 20 31 30.14 1021 10 16 N/A
2:13 am 02:13 Cloudy 27 -3 3 -16 36 36 SSW 22 35 30.12 1020 10 16 N/A
2:52 am 02:52 Cloudy 27 -2.8 3 -16.1 35 35 S 22 35 30.10 1019 10 16 N/A
3:52 am 03:52 Cloudy 28 -2.2 3 -16.1 34 34 S 22 35 30.06 1018 10 16 N/A
4:52 am 04:52 Cloudy 28 -2.2 5 -15 37 37 SSW 16 26 30.05 1018 10 16 N/A
5:52 am 05:52 Cloudy 28 -2.2 6 -14.4 39 39 SSW 22 35 30.04 1017 10 16 N/A
6:21 am 06:21 Cloudy 28 -2 7 -14 40 40 SSW 21 33 30.03 1017 10 16 N/A
6:52 am 06:52 Cloudy 29 -1.7 6 -14.4 38 38 SSW 16 26 30.05 1018 10 16 N/A
7:52 am 07:52 Cloudy 30 -1.1 6 -14.4 36 36 WSW 5 7 30.09 1019 10 16 N/A
8:52 am 08:52 Mostly Cloudy 30 -1.1 6 -14.4 36 36 WSW 3 6 30.12 1020 10 16 N/A
9:52 am 09:52 Partly Cloudy 32 undefined 6 -14.4 33 33 N N/A 30.14 1021 10 16 N/A
10:52 am 10:52 Mostly Sunny 34 1.1 6 -14.4 31 31 N N/A 30.12 1020 10 16 N/A
11:52 am 11:52 Mostly Sunny 38 3.3 5 -15 25 25 SW 5 7 30.10 1019 10 16 N/A
12:52 pm 12:52 Mostly Sunny 40 4.4 8 -13.3 27 27 NW 8 13 30.09 1019 10 16 N/A
1:52 pm 13:52 Mostly Sunny 41 5 10 -12.2 28 28 WNW 9 15 30.09 1019 10 16 N/A
2:52 pm 14:52 Mostly Sunny 41 5 10 -12.2 28 28 WNW 14 22 30.10 1019 10 16 N/A
3:52 pm 15:52 Mostly Sunny 40 4.4 9 -12.8 28 28 WNW 13 20 30.13 1020 10 16 N/A
4:52 pm 16:52 Mostly Sunny 37 2.8 8 -13.3 30 30 NW 12 19 30.15 1021 10 16 N/A
5:52 pm 17:52 Mostly Clear 36 2.2 7 -13.9 30 30 WNW 9 15 30.18 1022 10 16 N/A
6:52 pm 18:52 Clear 34 1.1 8 -13.3 34 34 NNW 9 15 30.21 1023 10 16 N/A
7:52 pm 19:52 Clear 32 undefined 10 -12.2 40 40 NW 14 22 30.24 1024 10 16 N/A
8:52 pm 20:52 Clear 31 -0.6 9 -12.8 40 40 NW 14 22 30.25 1025 10 16 N/A
9:52 pm 21:52 Clear 31 -0.6 8 -13.3 38 38 NNW 15 24 30.27 1025 10 16 N/A
10:52 pm 22:52 Clear 29 -1.7 8 -13.3 41 41 NNW 12 19 30.29 1026 10 16 N/A
11:52 pm 23:52 Clear 29 -1.7 7 -13.9 39 39 NW 15 24 30.32 1027 10 16 N/A

Powered by AerisWeather